Ronald Reagan Washington National, VA

10:33 PM EDT on June 23, 2018 (GMT -0400)
Ronald Reagan Washington National

Weather History for KDCA - January, 2005

Change the Weather History Date:

Wednesday, January 19, 2005

  Actual Average (KDCA) Record (KDCA)
Temperature  
Mean Temperature 22 °F 36 °F  
Max Temperature 26 °F 43 °F 71 °F (1951)
Min Temperature 18 °F 28 °F -4 °F (1994)
Degree Days  
Heating Degree Days 43 29  
Month to date heating degree days 551  
Since 1 July heating degree days 2032  
Cooling Degree Days 0 0  
Month to date cooling degree days 0  
Year to date cooling degree days 0  
Moisture  
Dew Point 12 °F    
Average Humidity 70    
Maximum Humidity 93    
Minimum Humidity 42    
Precipitation  
Precipitation 0.03 in 0.09 in 1.41 in (1936)
Month to date precipitation 1.71  
Year to date precipitation 1.71  
Snow  
Snow 0.00 in 0.20 in 7.00 in (1961)
Month to date snowfall 3.0  
Since 1 July snowfall 5.8  
Snow Depth 1.00 in    
Sea Level Pressure  
Sea Level Pressure 30.23 in    
Wind  
Wind Speed 12 mph (SSW)    
Max Wind Speed 22 mph    
Max Gust Speed 28 mph    
Visibility 6 miles    
Events Fog , Snow    
T = Trace of Precipitation, MM = Missing Value Source: NWS Daily Summary

Daily Weather History Graph

Daily Weather History Graph

Search for Another Location

Airport or City:

Astronomy

Jan. 19, 2005 Rise Set
Actual Time 7:23 AM EST 5:15 PM EST
Civil Twilight 6:54 AM EST 5:43 PM EST
Nautical Twilight 6:21 AM EST 6:16 PM EST
Astronomical Twilight 5:50 AM EST 6:48 PM EST
Moon 12:34 PM EST (1/19) 2:41 AM EST (1/19)
Length of Visible Light 10h 49m
Length of Day
9h 51m
Waxing Gibbous, 73% of the Moon is Illuminated
Jan 19
Waxing Gibbous
Jan 25
Full
Feb 2
Last Quarter
Feb 8
New
Feb 15
First Quarter

Hourly Weather History & Observations

Time (EST) Temp. Windchill Dew Point Humidity Pressure Visibility Wind Dir Wind Speed Gust Speed Precip Events Conditions
12:51 AM 18.0 °F 11.1 °F -0.9 °F 44% 30.58 in 10.0 mi South 4.6 mph - N/A   Overcast
1:51 AM 18.0 °F 8.7 °F -0.0 °F 45% 30.55 in 10.0 mi SE 6.9 mph - N/A   Overcast
2:51 AM 19.0 °F 9.0 °F 1.0 °F 46% 30.53 in 10.0 mi South 8.1 mph - N/A   Overcast
3:51 AM 19.0 °F 11.1 °F 3.9 °F 52% 30.50 in 10.0 mi SSW 5.8 mph - N/A   Overcast
4:51 AM 19.0 °F 6.8 °F 1.0 °F 46% 30.47 in 10.0 mi South 11.5 mph - N/A   Overcast
5:51 AM 19.9 °F 7.9 °F 6.1 °F 55% 30.43 in 10.0 mi South 11.5 mph - N/A   Overcast
6:51 AM 19.9 °F 8.6 °F 7.0 °F 57% 30.42 in 10.0 mi South 10.4 mph - N/A   Mostly Cloudy
7:51 AM 19.9 °F 7.3 °F 7.0 °F 57% 30.39 in 10.0 mi South 12.7 mph - N/A   Overcast
8:51 AM 21.9 °F 7.8 °F 3.0 °F 44% 30.35 in 10.0 mi SSW 17.3 mph - N/A   Overcast
9:51 AM 21.9 °F 7.3 °F 1.9 °F 42% 30.32 in 10.0 mi SSW 18.4 mph - N/A   Overcast
10:07 AM 21.2 °F 7.3 °F 3.2 °F 46% 30.32 in 8.0 mi SSW 16.1 mph 24.2 mph 0.00 in Snow Light Snow
10:14 AM 21.2 °F 6.4 °F 6.8 °F 54% 30.31 in 6.0 mi South 18.4 mph 24.2 mph 0.00 in Snow Light Snow
10:22 AM 21.2 °F 7.3 °F 8.6 °F 58% 30.31 in 3.0 mi SSW 16.1 mph 24.2 mph 0.00 in Snow Light Snow
10:26 AM 21.2 °F 6.4 °F 8.6 °F 58% 30.31 in 2.5 mi SSW 18.4 mph 24.2 mph 0.00 in Snow Light Snow
10:51 AM 19.9 °F 3.5 °F 14.0 °F 78% 30.29 in 0.5 mi SSW 21.9 mph 26.5 mph 0.00 in Snow Snow
11:04 AM 19.4 °F 4.1 °F 15.8 °F 86% 30.28 in 0.5 mi SSW 18.4 mph 24.2 mph 0.00 in Fog , Snow Snow
11:27 AM 19.4 °F 3.2 °F 17.6 °F 93% 30.26 in 0.2 mi South 20.7 mph 25.3 mph 0.01 in Fog , Snow Snow
11:35 AM 19.4 °F 2.8 °F 15.8 °F 86% 30.25 in 0.5 mi SSW 21.9 mph 27.6 mph 0.01 in Fog , Snow Snow
11:51 AM 19.9 °F 4.8 °F 16.0 °F 85% 30.23 in 0.5 mi SSW 18.4 mph 25.3 mph 0.01 in Fog , Snow Snow
12:51 PM 21.0 °F 5.7 °F 17.1 °F 85% 30.18 in 1.5 mi South 19.6 mph 24.2 mph 0.02 in Snow Light Snow
1:02 PM 21.2 °F 7.3 °F 17.6 °F 86% 30.17 in 0.5 mi SSW 16.1 mph - 0.00 in Fog , Snow Snow
1:10 PM 21.2 °F 6.4 °F 17.6 °F 86% 30.16 in 0.5 mi SSW 18.4 mph - 0.00 in Snow Light Snow
1:13 PM 21.2 °F 6.8 °F 17.6 °F 86% 30.16 in 1.5 mi SSW 17.3 mph 24.2 mph N/A Snow Light Snow
1:51 PM 21.2 °F 8.3 °F 17.6 °F 86% 30.14 in 1.0 mi SSW 13.8 mph - N/A Snow Light Snow
2:01 PM 21.2 °F 6.0 °F 17.6 °F 86% 30.13 in 1.0 mi SSW 19.6 mph - 0.00 in Snow Light Snow
2:15 PM 21.2 °F 8.3 °F 17.6 °F 86% 30.12 in 2.0 mi SW 13.8 mph - 0.00 in Snow Light Snow
2:21 PM 21.2 °F 8.3 °F 17.6 °F 86% 30.12 in 4.0 mi SSW 13.8 mph - 0.00 in Snow Light Snow
2:51 PM 21.9 °F 8.7 °F 17.1 °F 82% 30.09 in 10.0 mi SSW 15.0 mph - 0.00 in   Overcast
3:30 PM 23.0 °F 11.1 °F 17.6 °F 80% 30.08 in 10.0 mi SSW 12.7 mph - N/A   Overcast
3:51 PM 23.0 °F 11.7 °F 17.1 °F 78% 30.08 in 10.0 mi SSW 11.5 mph - N/A   Overcast
4:51 PM 24.1 °F 13.7 °F 17.1 °F 75% 30.06 in 10.0 mi SSW 10.4 mph - N/A   Overcast
5:02 PM 23.0 °F 12.4 °F 17.6 °F 80% 30.06 in 10.0 mi SSW 10.4 mph - N/A   Overcast
5:51 PM 24.1 °F 13.7 °F 17.1 °F 75% 30.05 in 10.0 mi SW 10.4 mph - N/A   Overcast
6:51 PM 25.0 °F 14.8 °F 17.1 °F 72% 30.05 in 10.0 mi SW 10.4 mph - N/A   Overcast
7:51 PM 25.0 °F 14.8 °F 17.1 °F 72% 30.04 in 10.0 mi SW 10.4 mph - N/A   Overcast
8:51 PM 26.1 °F 16.2 °F 18.0 °F 71% 30.04 in 10.0 mi SW 10.4 mph - N/A   Overcast
9:51 PM 26.1 °F 16.8 °F 18.0 °F 71% 30.03 in 10.0 mi SSW 9.2 mph - N/A   Overcast
10:51 PM 26.1 °F 16.8 °F 17.1 °F 69% 30.02 in 9.0 mi SSW 9.2 mph - 0.00 in Snow Light Snow
11:51 PM 26.1 °F 18.4 °F 18.0 °F 71% 30.01 in 10.0 mi SSW 6.9 mph - 0.00 in Snow Light Snow